This demonstration page uses our WeatherBlox Daily Observations layout. Learn more.

Left ArrowRight Arrow

Hourly Observations for November 7, 2016

Temp ( °F °C ) Dew Point ( °F °C ) Humidity (%) Winds ( mph kmh ) Pressure ( in mb ) Visibility ( mi km ) Precip ( " mm )
12:54 am 00:54 Clear 53 11.7 42 5.6 66 66 SSE 10 17 30.12 1020 10 16 0.00 0.00
1:54 am 01:54 Partly Cloudy 52 11.1 42 5.6 69 69 S 7 11 30.12 1020 10 16 0.00 0.00
2:54 am 02:54 Partly Cloudy 49 9.4 41 5 74 74 S 6 9 30.13 1020 10 16 0.00 0.00
3:54 am 03:54 Cloudy 52 11.1 42 5.6 69 69 S 7 11 30.12 1020 10 16 0.00 0.00
4:54 am 04:54 Cloudy 51 10.6 42 5.6 71 71 Calm 30.13 1020 10 16 0.00 0.00
5:54 am 05:54 Cloudy 50 10 42 5.6 74 74 S 6 9 30.14 1021 10 16 0.00 0.00
6:54 am 06:54 Mostly Cloudy 49 9.4 42 5.6 77 77 S 3 6 30.16 1021 10 16 0.00 0.00
7:54 am 07:54 Mostly Cloudy 51 10.6 42 5.6 71 71 Calm 30.18 1022 10 16 0.00 0.00
8:54 am 08:54 Cloudy with Light Rain 52 11.1 45 7.2 77 77 S 3 6 30.19 1022 9 14 0.00 0.03
9:54 am 09:54 Cloudy with Light Rain 52 11.1 47 8.3 83 83 Calm 30.20 1023 9 14 0.03 0.76
10:54 am 10:54 Cloudy 55 12.8 50 10 83 83 E 5 7 30.20 1023 10 16 0.00 0.03
11:54 am 11:54 Cloudy with Light Rain 55 12.8 51 10.6 87 87 Calm 30.20 1023 9 14 0.00 0.03
12:54 pm 12:54 Cloudy 55 12.8 51 10.6 87 87 Calm 30.20 1023 9 14 0.00 0.03
1:54 pm 13:54 Cloudy with Light Rain 55 12.8 52 11.1 90 90 NW 5 7 30.20 1023 5 8 0.00 0.03
2:47 pm 14:47 Cloudy 56 13.3 52 11.1 87 87 NNW 6 9 30.21 1023 10 16 0.00 0.03
2:54 pm 14:54 Cloudy 55 12.8 51 10.6 87 87 NW 8 13 30.21 1023 9 14 0.00 0.03
3:46 pm 15:46 Cloudy with Mist and Fog 54 12.2 51 10.6 90 90 NNW 6 9 30.21 1023 4 6 0.00 0.00
3:54 pm 15:54 Cloudy with Mist and Fog 54 12.2 51 10.6 90 90 NW 6 9 30.22 1024 4 6 0.00 0.00
4:15 pm 16:15 Cloudy with Mist and Fog 53 11.7 51 10.6 93 93 NW 6 9 30.27 1025 6 10 0.00 0.00
4:54 pm 16:54 Cloudy with Light Rain 53 11.7 51 10.6 93 93 Calm 30.24 1024 7 11 0.01 0.25
5:22 pm 17:22 Cloudy with Light Rain 53 11.7 51 10.6 93 93 Calm 30.27 1025 10 16 0.00 0.03
5:30 pm 17:30 Cloudy with Light Rain 53 11.7 51 10.6 93 93 Calm 30.27 1025 10 16 0.01 0.25
5:54 pm 17:54 Cloudy 52 11.1 51 10.6 97 97 SE 3 6 30.26 1025 9 14 0.01 0.25
6:54 pm 18:54 Cloudy with Mist and Fog 52 11.1 51 10.6 97 97 Calm 30.27 1025 6 10 0.00 0.00
7:54 pm 19:54 Cloudy with Mist and Fog 53 11.7 51 10.6 93 93 W 5 7 30.28 1026 5 8 0.00 0.00
8:36 pm 20:36 Cloudy with Mist and Fog 53 11.7 51 10.6 93 93 WNW 5 7 30.30 1026 5 8 0.00 0.00
8:54 pm 20:54 Cloudy with Mist and Fog 53 11.7 51 10.6 93 93 W 3 6 30.29 1026 5 8 0.00 0.00
9:47 pm 21:47 Cloudy 53 11.7 51 10.6 93 93 W 3 6 30.30 1026 7 11 0.00 0.03
9:54 pm 21:54 Cloudy 53 11.7 51 10.6 93 93 W 3 6 30.29 1026 7 11 0.00 0.03
10:54 pm 22:54 Cloudy 53 11.7 51 10.6 93 93 W 6 9 30.30 1026 8 13 0.00 0.00
11:21 pm 23:21 Cloudy 53 11.7 51 10.6 93 93 WNW 7 11 30.30 1026 8 13 0.00 0.00
11:54 pm 23:54 Cloudy 53 11.7 51 10.6 93 93 NNW 3 6 30.30 1026 8 13 0.00 0.00

Powered by AerisWeather